Weather observations for the past three days for
Carlsbad, McClellan-Palomar Airport
Metric (Imperial)
Date Time (pdt) Wind (kph) Vis. (km) Weather Sky Cond. Temperature (ºC) Relative Humidity Wind Chill (°C) Heat Index (°C) Pressure Precipitation (cm)
Air Dwpt 6 hour altimeter (cm) sea level (mb) 1 hr 3 hr 6 hr
Max. Min.
03 20:53 S 7 16.09 Fair CLR 20 15.6 76% 75.95 1012.3
03 19:53 SW 9 16.09 Fair CLR 20 15.6 76% 75.92 1011.8
03 18:53 SW 7 16.09 A Few Clouds FEW018 20.6 15.6 73% 75.92 1011.8
03 17:53 Vrbl 6 16.09 Mostly Cloudy BKN018 21.1 15.6 71% 75.92 1012.0
03 16:53 W 19 G 30 16.09 A Few Clouds FEW018 22.2 15.6 23.9 21.7 66% 75.92 1012.0
03 15:53 W 17 G 30 16.09 Partly Cloudy SCT017 22.8 16.7 69% 75.95 1012.3
03 14:53 W 17 16.09 A Few Clouds FEW017 23.3 17.2 69% 75.97 1012.6
03 13:53 W 17 16.09 Fair CLR 23.3 16.7 67% 76 1012.8
03 12:53 SW 15 16.09 Fair CLR 22.8 16.7 69% 76.02 1013.2
03 11:53 W 17 16.09 Fair CLR 23.3 16.1 64% 76.07 1013.8
03 10:53 W 11 16.09 Fair CLR 22.8 16.1 23.9 16.7 66% 76.1 1014.2
03 09:53 Vrbl 6 16.09 Fair CLR 21.7 15 66% 76.1 1014.2
03 08:53 Calm 16.09 Fair CLR 20.6 15.6 73% 76.1 1014.4
03 07:53 E 6 16.09 Fair CLR 18.9 14.4 75% 76.12 1014.5
03 06:53 Calm 16.09 A Few Clouds FEW017 17.2 14.4 84% 76.07 1013.9
03 05:53 SE 6 16.09 Fair CLR 17.2 14.4 84% 76.05 1013.6
03 04:53 Calm 16.09 Fair CLR 17.2 14.4 19.4 17.2 84% 76.05 1013.5
03 03:53 Calm 16.09 Fair CLR 17.8 14.4 81% 76.05 1013.7
03 02:53 Calm 16.09 Fair CLR 18.3 15 81% 76.1 1014.2
03 01:53 E 6 16.09 Fair CLR 18.3 15 81% 76.12 1014.5
03 00:53 SE 6 16.09 Fair CLR 18.9 15.6 81% 76.12 1014.7
02 23:53 E 6 16.09 Fair CLR 18.9 15.6 81% 76.15 1014.8
02 22:53 Calm 16.09 Fair CLR 19.4 16.1 22.8 19.4 81% 76.15 1014.9
02 21:53 Calm 16.09 Fair CLR 20 15.6 76% 76.15 1015.0
02 20:53 Calm 16.09 Fair CLR 20.6 16.1 76% 76.12 1014.6
02 19:53 Calm 16.09 Mostly Cloudy BKN017 20.6 16.7 78% 76.07 1014.0
02 18:53 Vrbl 6 16.09 Fair CLR 21.1 16.1 73% 76.07 1014.0
02 17:53 SW 11 16.09 Fair CLR 22.2 14.4 61% 76.07 1013.8
02 16:53 W 15 16.09 Fair CLR 22.2 15.6 23.3 22.2 66% 76.07 1013.9
02 15:53 W 15 16.09 Fair CLR 22.8 15.6 64% 76.1 1014.4
02 14:53 W 15 16.09 Fair CLR 22.8 15.6 64% 76.12 1014.7
02 13:53 SW 13 16.09 Fair CLR 22.8 16.1 66% 76.15 1015.0
02 12:53 W 11 G 30 16.09 Fair CLR 22.8 16.7 69% 76.2 1015.5
02 11:53 SW 13 16.09 Fair CLR 23.3 16.7 67% 76.2 1015.6
02 10:53 SW 13 16.09 Fair CLR 22.8 16.1 23.9 17.8 66% 76.23 1016.1
02 09:53 Vrbl 6 16.09 Fair CLR 22.2 15.6 66% 76.23 1015.8
02 08:53 S 9 16.09 A Few Clouds FEW017 21.1 16.1 73% 76.23 1015.8
02 07:53 E 6 16.09 Mostly Cloudy BKN018 19.4 16.1 81% 76.23 1015.8
02 06:53 Calm 16.09 Overcast OVC016 18.3 16.1 87% 76.2 1015.5
02 05:53 Calm 16.09 Overcast OVC016 18.3 16.1 87% 76.15 1015.0
02 04:53 E 6 16.09 Fair CLR 17.8 16.1 20.6 17.8 90% 76.15 1014.9
02 03:53 E 6 16.09 Fair CLR 18.3 16.1 87% 76.15 1015.0
02 02:53 Calm 16.09 Overcast OVC017 18.9 16.7 87% 76.17 1015.4
02 01:53 Calm 16.09 Mostly Cloudy BKN017 19.4 16.7 84% 76.2 1015.7
02 00:53 Calm 16.09 Fair CLR 20 16.7 81% 76.2 1015.6
01 23:53 Calm 16.09 A Few Clouds FEW016 20.6 16.7 78% 76.17 1015.3
01 22:53 Calm 16.09 Mostly Cloudy BKN015 20.6 17.2 22.8 20.6 81% 76.15 1015.1
01 21:53 Calm 16.09 Overcast OVC015 21.1 17.2 79% 76.17 1015.1
01 20:53 Calm 16.09 Mostly Cloudy BKN013 21.1 17.8 82% 76.1 1014.2
01 19:53 Calm 16.09 Fair CLR 21.1 17.8 82% 76.05 1013.5
01 18:53 W 11 16.09 Fair CLR 22.2 16.7 71% 76.05 1013.5
01 17:53 W 15 16.09 Fair CLR 22.8 16.7 69% 76.05 1013.4
01 16:53 Vrbl 7 16.09 Fair CLR 23.3 17.2 25 22.8 69% 76.07 1013.7
01 15:53 W 19 G 28 16.09 Fair CLR 23.3 16.7 67% 76.07 1014.0
01 14:53 W 20 G 33 16.09 Fair CLR 23.9 17.2 66% 25 76.1 1014.3
01 13:53 W 15 G 31 16.09 Fair CLR 23.9 16.1 62% 25 76.12 1014.5
01 12:53 W 17 G 26 16.09 Fair CLR 24.4 16.7 62% 25 76.15 1014.8
01 11:53 W 13 G 30 16.09 Fair CLR 24.4 17.2 64% 25 76.17 1015.1
01 10:53 W 13 16.09 Fair CLR 23.9 16.7 23.9 18.9 64% 25 76.17 1015.2
01 09:53 Vrbl 6 16.09 Fair CLR 23.3 16.7 67% 76.15 1015.1
01 08:53 N 6 16.09 Partly Cloudy SCT015 21.7 16.7 73% 76.15 1014.9
01 07:53 Calm 16.09 Fair CLR 20.6 16.7 78% 76.12 1014.5
01 06:53 Calm 16.09 Fair CLR 18.9 16.1 84% 76.1 1014.3
01 05:53 Calm 16.09 Fair CLR 18.9 16.7 87% 76.05 1013.6
01 04:53 Calm 16.09 Fair CLR 19.4 16.7 21.1 19.4 84% 76.05 1013.4
01 03:53 Calm 16.09 Fair CLR 20 17.2 84% 76.07 1013.8
01 02:53 Calm 16.09 Overcast OVC017 20.6 18.3 87% 76.07 1013.8
01 01:53 Calm 16.09 Overcast OVC015 21.1 18.3 84% 76.05 1013.6
01 00:53 Calm 16.09 Mostly Cloudy BKN011 20.6 18.3 87% 76.07 1013.7
31 23:53 Calm 16.09 Mostly Cloudy BKN010 20.6 17.8 84% 76.07 1013.8
31 22:53 SE 6 16.09 Mostly Cloudy BKN009 21.1 17.8 23.9 21.1 82% 76.07 1013.7
31 21:53 SE 6 16.09 Fair CLR 21.1 17.8 82% 76.05 1013.5
Date Time (pdt) Wind (kph) Vis. (km) Weather Sky Cond. Air Dwpt Max. Min. Relative Humidity Wind Chill (°C) Heat Index (°C) altimeter (cm) sea level (mb) 1 hr 3 hr 6 hr
6 hour
Temperature (ºC) Pressure Precipitation (cm)